Nassau, Bahamas

5:26 PM EDT on June 26, 2017 (GMT -0400)
Nassau International

Weather History for MYNN - March, 2013

Change the Weather History Date:

Wednesday, March 20, 2013

  Actual Average Record
Temperature  
Mean Temperature 75 °F -  
Max Temperature 82 °F 81 °F 90 °F (2016)
Min Temperature 68 °F 65 °F 59 °F (1999)
Cooling Degree Days 10    
Growing Degree Days 25 (Base 50)    
Moisture  
Dew Point 68 °F    
Average Humidity 78    
Maximum Humidity 100    
Minimum Humidity 48    
Precipitation  
Precipitation 0.00 in 0.06 in - ()
Sea Level Pressure  
Sea Level Pressure 29.92 in    
Wind  
Wind Speed 3 mph ()    
Max Wind Speed 10 mph    
Max Gust Speed -    
Visibility 6.8 miles    
Events      
Averages and records for this station are not official NWS values.
T = Trace of Precipitation, MM = Missing Value Source: Averaged Metar Reports

Daily Weather History Graph

Daily Weather History Graph

Search for Another Location

Airport or City:

Trip Planner

Search our weather history database for the weather conditions in past years. The results will help you decide how hot, cold, wet, or windy it might be!

Date:

Astronomy

Mar. 20, 2013 Rise Set
Actual Time 7:13 AM EDT 7:21 PM EDT
Civil Twilight 6:50 AM EDT 7:44 PM EDT
Nautical Twilight 6:24 AM EDT 8:10 PM EDT
Astronomical Twilight 5:57 AM EDT 8:37 PM EDT
Moon 1:26 PM EDT (3/20) 2:19 AM EDT (3/20)
Length of Visible Light 12h 53m
Length of Day
12h 07m
First Quarter, 59% of the Moon is Illuminated
Mar 20
First Quarter
Mar 27
Full
Apr 3
Last Quarter
Apr 10
New
Apr 18
First Quarter

Hourly Weather History & Observations

Time (EDT) Temp. Heat Index Dew Point Humidity Pressure Visibility Wind Dir Wind Speed Gust Speed Precip Events Conditions
12:00 AM 71.6 °F - 68.0 °F 88% 29.97 in 6.2 mi Calm Calm - N/A   Scattered Clouds
1:00 AM 71.6 °F - 68.0 °F 88% 29.96 in 6.2 mi Calm Calm - N/A   Partly Cloudy
2:00 AM 71 °F - 68 °F 89% 29.96 in 8 mi North 2.3 mph - -   Partly Cloudy
2:00 AM 71.6 °F - 68.0 °F 88% 29.95 in 6.2 mi North 2.3 mph - N/A   Scattered Clouds
3:00 AM 71.6 °F - 66.2 °F 83% 29.94 in 6.2 mi North 3.5 mph - N/A   Partly Cloudy
4:00 AM 71.6 °F - 66.2 °F 83% 29.92 in 6.2 mi North 3.5 mph - N/A   Scattered Clouds
5:00 AM 70 °F - 69 °F 96% 29.92 in 8 mi North 3.5 mph - -   Partly Cloudy
5:00 AM 69.8 °F - 69.8 °F 100% 29.91 in 6.2 mi North 3.5 mph - N/A   Scattered Clouds
6:00 AM 71.6 °F - 66.2 °F 83% 29.93 in - North 2.3 mph - N/A   Clear
7:00 AM 71.6 °F - 66.2 °F 83% 29.94 in 6.2 mi North 2.3 mph - N/A   Scattered Clouds
8:00 AM 68 °F - 67 °F 94% 29.96 in 8 mi Calm Calm - -   Partly Cloudy
8:00 AM 68.0 °F - 66.2 °F 94% 29.96 in 6.2 mi Calm Calm - N/A   Scattered Clouds
9:00 AM 71.6 °F - 68.0 °F 88% 29.98 in 6.2 mi Calm Calm - N/A   Partly Cloudy
10:00 AM 75.2 °F - 68.0 °F 78% 29.98 in 6.2 mi NNE 4.6 mph - N/A   Partly Cloudy
11:00 AM 78 °F - 69 °F 67% 29.99 in 9 mi NNE 3.5 mph - -   Scattered Clouds
11:00 AM 78.8 °F - 69.8 °F 74% 29.98 in 6.2 mi NNE 3.5 mph - N/A   Partly Cloudy
12:00 PM 78.8 °F - 69.8 °F 74% 29.98 in 6.2 mi North 6.9 mph - N/A   Partly Cloudy
1:00 PM 77.0 °F - 68.0 °F 74% 29.96 in 6.2 mi North 4.6 mph - N/A   Scattered Clouds
2:00 PM 78 °F - 68 °F 63% 29.94 in 9 mi North 3.5 mph - -   Partly Cloudy
2:00 PM 78.8 °F - 68.0 °F 69% 29.93 in 6.2 mi North 3.5 mph - N/A   Scattered Clouds
3:00 PM 77.0 °F - 68.0 °F 74% 29.89 in 6.2 mi NNW 3.5 mph - N/A   Scattered Clouds
4:00 PM 77.0 °F - 69.8 °F 78% 29.86 in 6.2 mi East 3.5 mph - N/A   Scattered Clouds
5:00 PM 82 °F - 65 °F 48% 29.85 in 9 mi South 10.4 mph - -   Scattered Clouds
5:00 PM 82.4 °F 84.6 °F 66.2 °F 58% 29.85 in 6.2 mi South 10.4 mph - N/A   Partly Cloudy
6:00 PM 78.8 °F - 66.2 °F 65% 29.85 in 6.2 mi WSW 3.5 mph - N/A   Partly Cloudy
7:00 PM 77.0 °F - 66.2 °F 69% 29.86 in 6.2 mi SSW 3.5 mph - N/A   Partly Cloudy
8:00 PM 75.2 °F - 68.0 °F 78% 29.87 in 6.2 mi SSW 3.5 mph - N/A   Scattered Clouds
9:00 PM 75.2 °F - 68.0 °F 78% 29.88 in 6.2 mi West 2.3 mph - N/A   Scattered Clouds
10:00 PM 75.2 °F - 66.2 °F 73% 29.88 in 6.2 mi West 2.3 mph - N/A   Partly Cloudy
11:00 PM 74 °F - 66 °F 70% 29.90 in 9 mi WNW 6.9 mph - -   Scattered Clouds
11:00 PM 73.4 °F - 66.2 °F 78% 29.90 in 6.2 mi WNW 6.9 mph - N/A   Partly Cloudy